User: anonymous   Login
Location: Milton Keynes
(52.0316°N, 0.7531°W)
Time: 10:15:55
(UTC+01:00)
Language:

Genesis I - Orbit

View from above orbital plane
View from above orbital plane
View from above satellite
View from above satellite

Ground track
Ground track

The orbit data is extracted from the following two-line orbital elements,

1 29252U 06029A   19142.54042946 +.00000327 +00000-0 +26109-4 0  9992
2 29252 064.5053 143.2219 0050386 242.1912 117.4099 15.17711046708616
Epoch (UTC): 22 May 2019 12:58:13
Eccentricity: 0.0050386
inclination: 64.5053°
perigee height: 478 km
apogee height: 547 km
right ascension of ascending node: 143.2219°
argument of perigee: 242.1912°
revolutions per day: 15.17711046
mean anomaly at epoch: 117.4099°
orbit number at epoch: 70861

The dashed part of the orbit path shows where the satellite is in the earth's shadow,  

DLR